Location: Marcé
(47.5801°N, 0.3280°W)
Time: 06:08:39
(UTC+01:00)

ISS - Pass Details

Date: 29 October 2021
Orbit: 417 x 422 km, 51.6° (Epoch: 04 December)

Event Time Altitude Azimuth Distance (km) Brightness Sun altitude
Exits shadow 07:57:19 11° 287° (WNW) 1,466 -1.7 -7.9°
Maximum altitude 08:00:25 39° 358° (N) 642 -2.9 -7.4°
Drops below altitude 10° 08:03:37 10° 69° (ENE) 1,499 0.0 -6.9°
Sets 08:05:48 0° 78° (ENE) 2,362 1.4 -6.5°
